User: anonymous   Login
Location: Ottawa
(45.4170°N, 75.7000°W)
Time: 19:23:42
(UTC-05:00)
Language:

Aureole 3 Rocket - Orbit

View from above orbital plane
View from above orbital plane
View from above satellite
View from above satellite

Ground track
Ground track

The orbit data is extracted from the following two-line orbital elements,

1 12849U 81094B   15029.22904657  .00002104  00000-0  19910-3 0  1002
2 12849 082.4954 113.8088 0908639 232.2752 119.2647 13.48703640624575
Epoch (UTC): 29 January 2015 05:29:49
Eccentricity: 0.0908639
inclination: 82.4954°
perigee height: 399 km
apogee height: 1754 km
right ascension of ascending node: 113.8088°
argument of perigee: 232.2752°
revolutions per day: 13.48703640
mean anomaly at epoch: 119.2647°
orbit number at epoch: 62457

The dashed part of the orbit path shows where the satellite is in the earth's shadow,  

DLR